Regional Weather Roundup
Issued by NWS

Home | Current Version | Previous Version | Text Only | Print | Product List | Glossary On
Versions: 1 2 3 4 5 6 7 8 9 10 11 12 13 14 15 16 17 18 19 20 21 22 23 24 25 26 27 28 29 30 31 32 33 34 35 36 37 38 39 40 41 42 43 44 45 46 47 48 49 50
000
ASUS46 KPQR 051210
RWROR

OREGON REGIONAL WEATHER ROUNDUP
NATIONAL WEATHER SERVICE PORTLAND OR
400 AM PST THU MAR 05 2015

NOTE: "FAIR" INDICATES FEW OR NO CLOUDS BELOW 12,000 FEET WITH
NO SIGNIFICANT WEATHER AND/OR OBSTRUCTIONS TO VISIBILITY.

ORZ001>013-051300-
NORTHWEST OREGON


CITY           SKY/WX    TMP DP  RH WIND       PRES   REMARKS
ASTORIA        PTCLDY    34  31  88 CALM      30.29S
6HR MIN TEMP:  34; 6HR MAX TEMP:  40;

NEWPORT        CLEAR     37  34  87 E3        30.30S
PORTLAND       CLEAR     35  30  82 CALM      30.32S
6HR MIN TEMP:  32; 6HR MAX TEMP:  44;

VANCOUVER WA   CLEAR     29  25  85 CALM      30.31S
6HR MIN TEMP:  29; 6HR MAX TEMP:  38;

SCAPPOOSE      CLEAR     33  28  81 NW6       30.31R WCI  28
6HR MIN TEMP:  31; 6HR MAX TEMP:  42;

HILLSBORO      CLEAR     31  28  89 CALM      30.30S
6HR MIN TEMP:  31; 6HR MAX TEMP:  41;

AURORA         PTCLDY    32  29  88 CALM      30.31S
6HR MIN TEMP:  32; 6HR MAX TEMP:  42;

MCMINNVILLE    CLEAR     32  29  88 CALM      30.31S
6HR MIN TEMP:  32; 6HR MAX TEMP:  42;

SALEM          PTCLDY    32  28  85 CALM      30.30S
6HR MIN TEMP:  32; 6HR MAX TEMP:  40;

CORVALLIS      CLEAR     30  27  86 CALM      30.31S
EUGENE         CLEAR     29  27  92 CALM      30.30S
6HR MIN TEMP:  29; 6HR MAX TEMP:  38;

$$

ORZ021-028-051300-
SOUTHWEST OREGON


CITY           SKY/WX    TMP DP  RH WIND       PRES   REMARKS
NORTH BEND     CLEAR     37  36  93 SE7       30.28S WCI  32
6HR MIN TEMP:  37; 6HR MAX TEMP:  43;

BROOKINGS      CLEAR     41  41 100 CALM      30.25S
ROSEBURG       CLEAR     35  32  88 CALM      30.30R
6HR MIN TEMP:  34; 6HR MAX TEMP:  43;

SEXTON SUMMIT  CLEAR     44  28  53 SE5       30.24S
6HR MIN TEMP:  43; 6HR MAX TEMP:  47;

MEDFORD        CLEAR     35  30  82 CALM      30.29R
6HR MIN TEMP:  35; 6HR MAX TEMP:  45;

$$

ORZ014>016-041-051300-
COLUMBIA GORGE


CITY           SKY/WX    TMP DP  RH WIND       PRES   REMARKS
TROUTDALE      CLEAR     33  29  85 CALM      30.30F
6HR MIN TEMP:  32; 6HR MAX TEMP:  41;

THE DALLES     CLEAR     31  27  85 SE3       30.31S
6HR MIN TEMP:  29; 6HR MAX TEMP:  39;

$$

ORZ029>031-041-044-049-050-061>064-502-503-505>511-051300-
EASTERN OREGON


CITY           SKY/WX    TMP DP  RH WIND       PRES   REMARKS
REDMOND        PTCLDY    21  15  78 CALM      30.25S
6HR MIN TEMP:  19; 6HR MAX TEMP:  29;

BEND           PTCLDY    28  14  54 SE8       30.25S WCI  20
PRINEVILLE     PTCLDY    19  16  86 CALM      30.26S
KLAMATH FALLS  CLEAR     19  14  81 CALM      30.29S
6HR MIN TEMP:  18; 6HR MAX TEMP:  26;

LAKEVIEW       CLEAR     14   7  73 NW5       30.31S WCI   6
HERMISTON      PTCLDY    27  18  69 CALM      30.29R
6HR MIN TEMP:  23; 6HR MAX TEMP:  30;

PENDLETON      PTCLDY    30  17  58 SE7       30.25S WCI  23
6HR MIN TEMP:  29; 6HR MAX TEMP:  35;

JOHN DAY       CLEAR     29  19  64 E7        30.29S WCI  22
MEACHAM        PTCLDY    19  13  77 CALM      30.24F
6HR MIN TEMP:  19; 6HR MAX TEMP:  25;

LA GRANDE      PTCLDY    32   9  37 CALM      30.28S
6HR MIN TEMP:  27; 6HR MAX TEMP:  37;

BAKER CITY     PTCLDY    17  12  80 N3        30.31S
6HR MIN TEMP:  14; 6HR MAX TEMP:  25;

BURNS          MOCLDY    18  12  77 W3        30.31R
6HR MIN TEMP:  16; 6HR MAX TEMP:  22;

ROME             N/A     20  11  68 SW6       30.31R WCI  12
6HR MIN TEMP:  18; 6HR MAX TEMP:  26;

ONTARIO        PTCLDY    19  12  74 W5        30.39S WCI  12
6HR MIN TEMP:  19; 6HR MAX TEMP:  28;

$$



USA.gov is the U.S. government's official web portal to all federal, state and local government web resources and services.